| time (UTC) | temp F | wind direction | speed MPH | gust MPH | rain 1hr in | rain 24hr in | rain mn in | humidity % | barometer mb |
| 20260510225042 | 73 | 54 | 3.0 | 8.0 | 0.00 | 0.00 | 0.00 | 66 | 1015.5 |
| 20260510224552 | 74 | 317 | 1.0 | 6.0 | 0.00 | 0.00 | 0.00 | 65 | 1015.5 |
| 20260510224043 | 74 | 352 | 1.0 | 6.0 | 0.00 | 0.00 | 0.00 | 64 | 1015.5 |
| 20260510223543 | 75 | 323 | 3.0 | 13.0 | 0.00 | 0.00 | 0.00 | 62 | 1015.5 |
| 20260510223102 | 76 | 342 | 3.0 | 13.0 | 0.00 | 0.00 | 0.00 | 59 | 1015.6 |
| 20260510222544 | 77 | 336 | 4.0 | 8.0 | 0.00 | 0.00 | 0.00 | 53 | 1015.5 |
| 20260510222042 | 77 | 303 | 5.0 | 8.0 | 0.00 | 0.00 | 0.00 | 52 | 1015.5 |
| 20260510221556 | 78 | 298 | 2.0 | 5.0 | 0.00 | 0.00 | 0.00 | 52 | 1015.4 |
| 20260510221042 | 78 | 318 | 3.0 | 9.0 | 0.00 | 0.00 | 0.00 | 51 | 1015.4 |
| 20260510220543 | 78 | 360 | 3.0 | 10.0 | 0.00 | 0.00 | 0.00 | 51 | 1015.3 |
| 20260510220055 | 78 | 284 | 6.0 | 10.0 | 0.00 | 0.00 | 0.00 | 49 | 1015.4 |
| 20260510215543 | 78 | 331 | 3.0 | 8.0 | 0.00 | 0.00 | 0.00 | 51 | 1015.4 |
| 20260510215041 | 79 | 295 | 4.0 | 9.0 | 0.00 | 0.00 | 0.00 | 48 | 1015.4 |
| 20260510214551 | 79 | 338 | 5.0 | 9.0 | 0.00 | 0.00 | 0.00 | 48 | 1015.4 |
| 20260510214042 | 80 | 331 | 4.0 | 9.0 | 0.00 | 0.00 | 0.00 | 52 | 1015.4 |
| 20260510213543 | 79 | 300 | 5.0 | 9.0 | 0.00 | 0.00 | 0.00 | 49 | 1015.4 |
| 20260510213057 | 80 | 319 | 4.0 | 9.0 | 0.00 | 0.00 | 0.00 | 50 | 1015.4 |
| 20260510212544 | 81 | 269 | 4.0 | 8.0 | 0.00 | 0.00 | 0.00 | 48 | 1015.3 |
| 20260510212042 | 80 | 298 | 3.0 | 8.0 | 0.00 | 0.00 | 0.00 | 50 | 1015.3 |
| 20260510211555 | 80 | 311 | 4.0 | 10.0 | 0.00 | 0.00 | 0.00 | 48 | 1015.4 |
| 20260510211044 | 80 | 271 | 6.0 | 12.0 | 0.00 | 0.00 | 0.00 | 46 | 1015.4 |
| 20260510210543 | 80 | 326 | 8.0 | 12.0 | 0.00 | 0.00 | 0.00 | 46 | 1015.5 |
| 20260510210057 | 80 | 337 | 6.0 | 11.0 | 0.00 | 0.00 | 0.00 | 48 | 1015.4 |
| 20260510205544 | 80 | 299 | 6.0 | 11.0 | 0.00 | 0.00 | 0.00 | 47 | 1015.3 |
| 20260510205043 | 81 | 310 | 3.0 | 9.0 | 0.00 | 0.00 | 0.00 | 50 | 1015.4 |
| 20260510204554 | 80 | 336 | 5.0 | 9.0 | 0.00 | 0.00 | 0.00 | 48 | 1015.4 |
| 20260510204042 | 79 | 352 | 3.0 | 10.0 | 0.00 | 0.00 | 0.00 | 51 | 1015.4 |
| 20260510203542 | 80 | 33 | 4.0 | 10.0 | 0.00 | 0.00 | 0.00 | 48 | 1015.5 |
| 20260510203052 | 80 | 312 | 5.0 | 11.0 | 0.00 | 0.00 | 0.00 | 48 | 1015.5 |
| 20260510202543 | 80 | 285 | 6.0 | 11.0 | 0.00 | 0.00 | 0.00 | 50 | 1015.4 |
| 20260510202042 | 80 | 313 | 2.0 | 9.0 | 0.00 | 0.00 | 0.00 | 50 | 1015.5 |
| 20260510201558 | 80 | 319 | 5.0 | 9.0 | 0.00 | 0.00 | 0.00 | 51 | 1015.5 |
| 20260510201041 | 80 | 327 | 3.0 | 8.0 | 0.00 | 0.00 | 0.00 | 49 | 1015.5 |
| 20260510200543 | 80 | 315 | 3.0 | 8.0 | 0.00 | 0.00 | 0.00 | 50 | 1015.6 |
| 20260510200054 | 80 | 301 | 4.0 | 8.0 | 0.00 | 0.00 | 0.00 | 50 | 1015.6 |
| 20260510195542 | 79 | 323 | 2.0 | 9.0 | 0.00 | 0.00 | 0.00 | 51 | 1015.6 |
| 20260510195042 | 79 | 315 | 2.0 | 9.0 | 0.00 | 0.00 | 0.00 | 51 | 1015.6 |
| 20260510194552 | 79 | 311 | 5.0 | 9.0 | 0.00 | 0.00 | 0.00 | 51 | 1015.6 |
| 20260510194044 | 80 | 342 | 2.0 | 9.0 | 0.00 | 0.00 | 0.00 | 54 | 1015.6 |
| 20260510193543 | 79 | 352 | 3.0 | 9.0 | 0.00 | 0.00 | 0.00 | 53 | 1015.7 |
| 20260510193055 | 80 | 30 | 3.0 | 7.0 | 0.00 | 0.00 | 0.00 | 52 | 1015.6 |
| 20260510192543 | 79 | 306 | 2.0 | 9.0 | 0.00 | 0.00 | 0.00 | 52 | 1015.6 |
| 20260510192044 | 79 | 284 | 3.0 | 9.0 | 0.00 | 0.00 | 0.00 | 53 | 1015.5 |
| 20260510191602 | 79 | 285 | 1.0 | 5.0 | 0.00 | 0.00 | 0.00 | 56 | 1015.5 |
| 20260510191044 | 79 | 17 | 2.0 | 7.0 | 0.00 | 0.00 | 0.00 | 54 | 1015.6 |
| 20260510190547 | 79 | 286 | 2.0 | 8.0 | 0.00 | 0.00 | 0.00 | 57 | 1015.6 |
| 20260510190058 | 80 | 292 | 4.0 | 8.0 | 0.00 | 0.00 | 0.00 | 52 | 1015.6 |
| 20260510185542 | 79 | 314 | 2.0 | 9.0 | 0.00 | 0.00 | 0.00 | 55 | 1015.6 |
| 20260510185043 | 79 | 343 | 5.0 | 9.0 | 0.00 | 0.00 | 0.00 | 53 | 1015.6 |
| 20260510184556 | 79 | 296 | 4.0 | 6.0 | 0.00 | 0.00 | 0.00 | 53 | 1015.5 |
| 20260510184042 | 79 | 28 | 1.0 | 9.0 | 0.00 | 0.00 | 0.00 | 56 | 1015.6 |
| 20260510183544 | 79 | 21 | 3.0 | 9.0 | 0.00 | 0.00 | 0.00 | 51 | 1015.6 |
| 20260510183059 | 79 | 9 | 4.0 | 10.0 | 0.00 | 0.00 | 0.00 | 54 | 1015.7 |
| 20260510182543 | 79 | 0 | 3.0 | 10.0 | 0.00 | 0.00 | 0.00 | 53 | 1015.5 |
| 20260510182043 | 80 | 286 | 5.0 | 10.0 | 0.00 | 0.00 | 0.00 | 50 | 1015.7 |
| 20260510181555 | 80 | 24 | 1.0 | 9.0 | 0.00 | 0.00 | 0.00 | 47 | 1015.7 |
| 20260510181043 | 80 | 255 | 2.0 | 9.0 | 0.00 | 0.00 | 0.00 | 45 | 1015.7 |
| 20260510180544 | 80 | 244 | 5.0 | 9.0 | 0.00 | 0.00 | 0.00 | 43 | 1015.8 |
| 20260510180055 | 80 | 232 | 4.0 | 9.0 | 0.00 | 0.00 | 0.00 | 42 | 1015.9 |
| 20260510175541 | 80 | 213 | 5.0 | 13.0 | 0.00 | 0.00 | 0.00 | 46 | 1015.9 |
| 20260510175041 | 80 | 253 | 3.0 | 13.0 | 0.00 | 0.00 | 0.00 | 42 | 1015.9 |
| 20260510174551 | 79 | 286 | 6.0 | 13.0 | 0.00 | 0.00 | 0.00 | 45 | 1016.0 |
| 20260510174043 | 80 | 194 | 5.0 | 11.0 | 0.00 | 0.00 | 0.00 | 48 | 1016.1 |
| 20260510173545 | 80 | 300 | 3.0 | 11.0 | 0.00 | 0.00 | 0.00 | 47 | 1016.0 |
| 20260510173052 | 79 | 300 | 6.0 | 11.0 | 0.00 | 0.00 | 0.00 | 43 | 1016.2 |
| 20260510172542 | 79 | 276 | 5.0 | 12.0 | 0.00 | 0.00 | 0.00 | 48 | 1016.2 |
| 20260510172042 | 79 | 200 | 8.0 | 12.0 | 0.00 | 0.00 | 0.00 | 45 | 1016.2 |
| 20260510171551 | 79 | 284 | 8.0 | 11.0 | 0.00 | 0.00 | 0.00 | 45 | 1016.3 |
| 20260510171040 | 79 | 244 | 5.0 | 10.0 | 0.00 | 0.00 | 0.00 | 46 | 1016.2 |
| 20260510170542 | 80 | 302 | 6.0 | 10.0 | 0.00 | 0.00 | 0.00 | 47 | 1016.2 |
| 20260510170052 | 79 | 275 | 5.0 | 9.0 | 0.00 | 0.00 | 0.00 | 48 | 1016.2 |
| 20260510165542 | 79 | 275 | 6.0 | 13.0 | 0.00 | 0.00 | 0.00 | 46 | 1016.2 |
| 20260510165041 | 79 | 282 | 5.0 | 13.0 | 0.00 | 0.00 | 0.00 | 46 | 1016.2 |
| 20260510164553 | 79 | 275 | 8.0 | 13.0 | 0.00 | 0.00 | 0.00 | 45 | 1016.1 |
| 20260510164041 | 79 | 284 | 3.0 | 13.0 | 0.00 | 0.00 | 0.00 | 45 | 1016.1 |
| 20260510163545 | 79 | 275 | 6.0 | 12.0 | 0.00 | 0.00 | 0.00 | 48 | 1016.2 |
| 20260510163053 | 78 | 200 | 3.0 | 8.0 | 0.00 | 0.00 | 0.00 | 48 | 1016.1 |
| 20260510162541 | 78 | 278 | 4.0 | 8.0 | 0.00 | 0.00 | 0.00 | 50 | 1016.2 |
| 20260510162041 | 77 | 288 | 4.0 | 9.0 | 0.00 | 0.00 | 0.00 | 48 | 1016.1 |
| 20260510161551 | 77 | 227 | 5.0 | 9.0 | 0.00 | 0.00 | 0.00 | 50 | 1016.0 |
| 20260510161041 | 78 | 253 | 4.0 | 9.0 | 0.00 | 0.00 | 0.00 | 47 | 1016.0 |
| 20260510160543 | 78 | 214 | 4.0 | 10.0 | 0.00 | 0.00 | 0.00 | 50 | 1016.0 |
| 20260510160132 | 77 | 242 | 5.0 | 10.0 | 0.00 | 0.00 | 0.00 | 48 | 1016.1 |
| 20260510155541 | 77 | 272 | 4.0 | 10.0 | 0.00 | 0.00 | 0.00 | 56 | 1016.1 |
| 20260510155041 | 77 | 211 | 2.0 | 10.0 | 0.00 | 0.00 | 0.00 | 54 | 1016.1 |
| 20260510154605 | 76 | 260 | 5.0 | 10.0 | 0.00 | 0.00 | 0.00 | 59 | 1015.9 |
| 20260510154041 | 76 | 208 | 4.0 | 8.0 | 0.00 | 0.00 | 0.00 | 57 | 1015.9 |
| 20260510153542 | 75 | 213 | 4.0 | 8.0 | 0.00 | 0.00 | 0.00 | 59 | 1015.8 |
| 20260510153055 | 75 | 192 | 5.0 | 9.0 | 0.00 | 0.00 | 0.00 | 62 | 1015.8 |
| 20260510152542 | 75 | 254 | 5.0 | 10.0 | 0.00 | 0.00 | 0.00 | 60 | 1015.8 |
| 20260510152041 | 75 | 180 | 3.0 | 10.0 | 0.00 | 0.00 | 0.00 | 64 | 1015.7 |
| 20260510151558 | 74 | 235 | 4.0 | 9.0 | 0.00 | 0.00 | 0.00 | 63 | 1015.8 |
| 20260510151041 | 74 | 277 | 4.0 | 8.0 | 0.00 | 0.00 | 0.00 | 56 | 1015.7 |
| 20260510150542 | 74 | 252 | 3.0 | 9.0 | 0.00 | 0.00 | 0.00 | 63 | 1015.6 |
| 20260510150055 | 73 | 274 | 5.0 | 9.0 | 0.00 | 0.00 | 0.00 | 59 | 1015.6 |
| 20260510145544 | 73 | 250 | 4.0 | 8.0 | 0.00 | 0.00 | 0.00 | 64 | 1015.6 |
| 20260510145041 | 73 | 207 | 4.0 | 8.0 | 0.00 | 0.00 | 0.00 | 63 | 1015.7 |
| 20260510144551 | 72 | 233 | 5.0 | 9.0 | 0.00 | 0.00 | 0.00 | 62 | 1015.7 |
| 20260510144044 | 72 | 261 | 4.0 | 9.0 | 0.00 | 0.00 | 0.00 | 65 | 1015.8 |
| 20260510143541 | 72 | 290 | 3.0 | 8.0 | 0.00 | 0.00 | 0.00 | 66 | 1015.9 |
| 20260510143054 | 72 | 302 | 2.0 | 8.0 | 0.00 | 0.00 | 0.00 | 67 | 1015.9 |
| 20260510142544 | 71 | 284 | 5.0 | 8.0 | 0.00 | 0.00 | 0.00 | 66 | 1016.1 |
| 20260510142042 | 70 | 257 | 3.0 | 8.0 | 0.00 | 0.00 | 0.00 | 72 | 1016.0 |
| 20260510141554 | 70 | 200 | 3.0 | 8.0 | 0.00 | 0.00 | 0.00 | 71 | 1015.9 |
| 20260510141044 | 69 | 192 | 3.0 | 6.0 | 0.00 | 0.00 | 0.00 | 73 | 1015.8 |
| 20260510140543 | 69 | 200 | 3.0 | 6.0 | 0.00 | 0.00 | 0.00 | 73 | 1015.7 |
| 20260510140057 | 68 | 216 | 4.0 | 6.0 | 0.00 | 0.00 | 0.00 | 78 | 1015.8 |
| 20260510135543 | 68 | 216 | 3.0 | 6.0 | 0.00 | 0.00 | 0.00 | 77 | 1015.8 |
| 20260510135042 | 67 | 234 | 4.0 | 5.0 | 0.00 | 0.00 | 0.00 | 77 | 1015.7 |
| 20260510134553 | 67 | 216 | 3.0 | 6.0 | 0.00 | 0.00 | 0.00 | 77 | 1015.8 |
| 20260510134042 | 66 | 241 | 3.0 | 6.0 | 0.00 | 0.00 | 0.00 | 80 | 1015.7 |
| 20260510133542 | 66 | 207 | 3.0 | 5.0 | 0.00 | 0.00 | 0.00 | 81 | 1015.7 |
| 20260510133053 | 65 | 213 | 3.0 | 5.0 | 0.00 | 0.00 | 0.00 | 83 | 1015.7 |
| 20260510132543 | 65 | 214 | 3.0 | 8.0 | 0.00 | 0.00 | 0.00 | 85 | 1015.7 |
| 20260510132043 | 64 | 229 | 3.0 | 8.0 | 0.00 | 0.00 | 0.00 | 84 | 1015.6 |
| 20260510131555 | 64 | 182 | 4.0 | 8.0 | 0.00 | 0.00 | 0.00 | 85 | 1015.6 |
| 20260510131042 | 64 | 229 | 3.0 | 6.0 | 0.00 | 0.00 | 0.00 | 86 | 1015.6 |
| 20260510130544 | 64 | 229 | 2.0 | 7.0 | 0.00 | 0.00 | 0.00 | 86 | 1015.5 |
| 20260510130054 | 63 | 281 | 2.0 | 7.0 | 0.00 | 0.00 | 0.00 | 88 | 1015.5 |
| 20260510125542 | 63 | 245 | 2.0 | 7.0 | 0.00 | 0.00 | 0.00 | 88 | 1015.5 |
| 20260510125043 | 62 | 278 | 2.0 | 6.0 | 0.00 | 0.00 | 0.00 | 88 | 1015.6 |
| 20260510124549 | 62 | 0 | 0.0 | 2.0 | 0.00 | 0.00 | 0.00 | 89 | 1015.5 |
| 20260510124043 | 61 | 0 | 0.0 | 2.0 | 0.00 | 0.00 | 0.00 | 88 | 1015.5 |
| 20260510123543 | 61 | 0 | 0.0 | 0.0 | 0.00 | 0.00 | 0.00 | 88 | 1015.4 |
| 20260510123052 | 60 | 0 | 0.0 | 2.0 | 0.00 | 0.00 | 0.00 | 89 | 1015.6 |
| 20260510122542 | 60 | 0 | 0.0 | 2.0 | 0.00 | 0.00 | 0.00 | 89 | 1015.5 |
| 20260510122044 | 59 | 0 | 0.0 | 1.0 | 0.00 | 0.00 | 0.00 | 90 | 1015.5 |
| 20260510121556 | 59 | 0 | 0.0 | 2.0 | 0.00 | 0.00 | 0.00 | 89 | 1015.5 |
| 20260510121043 | 59 | 0 | 0.0 | 4.0 | 0.00 | 0.00 | 0.00 | 90 | 1015.4 |
| 20260510120542 | 58 | 290 | 1.0 | 4.0 | 0.00 | 0.00 | 0.00 | 91 | 1015.4 |
| 20260510120056 | 58 | 317 | 1.0 | 2.0 | 0.00 | 0.00 | 0.00 | 92 | 1015.3 |
| 20260510115546 | 57 | 0 | 0.0 | 1.0 | 0.00 | 0.00 | 0.00 | 92 | 1015.1 |
| 20260510115042 | 57 | 0 | 0.0 | 3.0 | 0.00 | 0.00 | 0.00 | 92 | 1015.1 |
| 20260510114550 | 57 | 127 | 0.0 | 3.0 | 0.00 | 0.00 | 0.00 | 92 | 1015.0 |
| 20260510114042 | 57 | 315 | 0.0 | 7.0 | 0.00 | 0.00 | 0.00 | 93 | 1015.2 |
| 20260510113542 | 57 | 265 | 2.0 | 7.0 | 0.00 | 0.00 | 0.00 | 93 | 1014.8 |
| 20260510113055 | 55 | 342 | 0.0 | 0.0 | 0.00 | 0.00 | 0.00 | 92 | 1014.7 |
| 20260510112543 | 56 | 0 | 0.0 | 0.0 | 0.00 | 0.00 | 0.00 | 93 | 1014.4 |
| 20260510112046 | 55 | 0 | 0.0 | 0.0 | 0.00 | 0.00 | 0.00 | 93 | 1014.5 |
| 20260510111607 | 54 | 0 | 0.0 | 0.0 | 0.00 | 0.00 | 0.00 | 92 | 1014.2 |
| 20260510111042 | 55 | 0 | 0.0 | 0.0 | 0.00 | 0.00 | 0.00 | 92 | 1014.1 |
| 20260510110544 | 55 | 0 | 0.0 | 0.0 | 0.00 | 0.00 | 0.00 | 92 | 1014.0 |
| 20260510110052 | 54 | 0 | 0.0 | 0.0 | 0.00 | 0.00 | 0.00 | 91 | 1014.0 |
| 20260510105543 | 54 | 0 | 0.0 | 0.0 | 0.00 | 0.00 | 0.00 | 91 | 1013.7 |
| 20260510105044 | 55 | 0 | 0.0 | 0.0 | 0.00 | 0.00 | 0.00 | 90 | 1013.7 |
| 20260510104552 | 55 | 0 | 0.0 | 0.0 | 0.00 | 0.00 | 0.00 | 91 | 1013.6 |
| 20260510104042 | 55 | 0 | 0.0 | 0.0 | 0.00 | 0.00 | 0.00 | 90 | 1013.4 |
| 20260510103541 | 56 | 0 | 0.0 | 0.0 | 0.00 | 0.00 | 0.00 | 90 | 1013.4 |
| 20260510103055 | 55 | 0 | 0.0 | 0.0 | 0.00 | 0.00 | 0.00 | 90 | 1013.4 |
| 20260510102542 | 55 | 0 | 0.0 | 0.0 | 0.00 | 0.00 | 0.00 | 90 | 1013.3 |
| 20260510102042 | 55 | 0 | 0.0 | 0.0 | 0.00 | 0.00 | 0.00 | 90 | 1013.2 |
| 20260510101552 | 54 | 0 | 0.0 | 0.0 | 0.00 | 0.00 | 0.00 | 90 | 1013.1 |
| 20260510101046 | 54 | 0 | 0.0 | 0.0 | 0.00 | 0.00 | 0.00 | 89 | 1013.1 |
| 20260510100542 | 54 | 0 | 0.0 | 0.0 | 0.00 | 0.00 | 0.00 | 88 | 1012.9 |
| 20260510100055 | 54 | 0 | 0.0 | 0.0 | 0.00 | 0.00 | 0.00 | 88 | 1013.0 |
| 20260510095544 | 55 | 0 | 0.0 | 0.0 | 0.00 | 0.00 | 0.00 | 88 | 1012.9 |
| 20260510095042 | 55 | 0 | 0.0 | 0.0 | 0.00 | 0.00 | 0.00 | 87 | 1013.1 |
| 20260510094553 | 55 | 0 | 0.0 | 0.0 | 0.00 | 0.00 | 0.00 | 88 | 1013.1 |
| 20260510094044 | 54 | 0 | 0.0 | 1.0 | 0.00 | 0.00 | 0.00 | 87 | 1013.0 |
| 20260510093543 | 54 | 0 | 0.0 | 1.0 | 0.00 | 0.00 | 0.00 | 86 | 1012.9 |
| 20260510093103 | 54 | 0 | 0.0 | 1.0 | 0.00 | 0.00 | 0.00 | 86 | 1012.9 |
| 20260510092544 | 54 | 0 | 0.0 | 2.0 | 0.00 | 0.00 | 0.00 | 86 | 1012.8 |
| 20260510092043 | 54 | 0 | 1.0 | 3.0 | 0.00 | 0.00 | 0.00 | 85 | 1012.9 |
| 20260510091554 | 54 | 182 | 1.0 | 3.0 | 0.00 | 0.00 | 0.00 | 85 | 1012.9 |
| 20260510091043 | 54 | 192 | 1.0 | 2.0 | 0.00 | 0.00 | 0.00 | 85 | 1012.8 |
| 20260510090542 | 54 | 0 | 0.0 | 2.0 | 0.00 | 0.00 | 0.00 | 84 | 1012.7 |
| 20260510090117 | 54 | 186 | 1.0 | 2.0 | 0.00 | 0.00 | 0.00 | 83 | 1012.6 |
| 20260510085541 | 54 | 190 | 0.0 | 2.0 | 0.00 | 0.00 | 0.00 | 83 | 1012.6 |
| 20260510085043 | 54 | 0 | 0.0 | 3.0 | 0.00 | 0.00 | 0.00 | 82 | 1012.6 |
| 20260510084550 | 54 | 180 | 1.0 | 3.0 | 0.00 | 0.00 | 0.00 | 80 | 1012.5 |
| 20260510084043 | 55 | 0 | 0.0 | 2.0 | 0.00 | 0.00 | 0.00 | 81 | 1012.6 |
| 20260510083546 | 54 | 0 | 0.0 | 2.0 | 0.00 | 0.00 | 0.00 | 80 | 1012.7 |
| 20260510083104 | 54 | 189 | 0.0 | 2.0 | 0.00 | 0.00 | 0.00 | 80 | 1012.6 |
| 20260510082542 | 54 | 0 | 0.0 | 0.0 | 0.00 | 0.00 | 0.00 | 80 | 1012.7 |
| 20260510082044 | 55 | 0 | 0.0 | 0.0 | 0.00 | 0.00 | 0.00 | 80 | 1012.7 |
| 20260510081607 | 55 | 0 | 0.0 | 1.0 | 0.00 | 0.00 | 0.00 | 79 | 1012.7 |
| 20260510081044 | 55 | 0 | 0.0 | 1.0 | 0.00 | 0.00 | 0.00 | 79 | 1012.8 |
| 20260510080544 | 56 | 190 | 0.0 | 0.0 | 0.00 | 0.00 | 0.00 | 77 | 1012.7 |
| 20260510080056 | 57 | 0 | 0.0 | 0.0 | 0.00 | 0.00 | 0.00 | 76 | 1012.7 |
| 20260510075544 | 57 | 0 | 0.0 | 0.0 | 0.00 | 0.00 | 0.00 | 76 | 1012.7 |
| 20260510075043 | 57 | 0 | 0.0 | 0.0 | 0.00 | 0.00 | 0.00 | 76 | 1012.5 |
| 20260510074552 | 57 | 0 | 0.0 | 0.0 | 0.00 | 0.00 | 0.00 | 76 | 1012.4 |
| 20260510074043 | 57 | 0 | 0.0 | 0.0 | 0.00 | 0.00 | 0.00 | 76 | 1012.2 |
| 20260510073543 | 57 | 0 | 0.0 | 0.0 | 0.00 | 0.00 | 0.00 | 76 | 1012.1 |
| 20260510073054 | 57 | 0 | 0.0 | 0.0 | 0.00 | 0.00 | 0.00 | 77 | 1012.1 |
| 20260510072544 | 57 | 0 | 0.0 | 0.0 | 0.00 | 0.00 | 0.00 | 78 | 1012.0 |
| 20260510072044 | 56 | 0 | 0.0 | 0.0 | 0.00 | 0.00 | 0.00 | 79 | 1012.0 |
| 20260510071555 | 56 | 0 | 0.0 | 0.0 | 0.00 | 0.00 | 0.00 | 80 | 1011.9 |
| 20260510071043 | 55 | 0 | 0.0 | 0.0 | 0.00 | 0.00 | 0.00 | 82 | 1012.0 |
| 20260510070544 | 55 | 0 | 0.0 | 0.0 | 0.00 | 0.00 | 0.00 | 81 | 1012.1 |
| 20260510070054 | 56 | 0 | 0.0 | 0.0 | 0.00 | 0.00 | 0.00 | 79 | 1012.1 |
| 20260510065546 | 57 | 0 | 0.0 | 0.0 | 0.00 | 0.00 | 0.00 | 76 | 1012.1 |
| 20260510065043 | 57 | 0 | 0.0 | 0.0 | 0.00 | 0.00 | 0.00 | 76 | 1012.1 |
| 20260510064601 | 57 | 0 | 0.0 | 0.0 | 0.00 | 0.00 | 0.00 | 77 | 1012.2 |
| 20260510064043 | 56 | 0 | 0.0 | 0.0 | 0.00 | 0.00 | 0.00 | 80 | 1012.2 |
| 20260510063542 | 55 | 0 | 0.0 | 0.0 | 0.00 | 0.00 | 0.00 | 82 | 1012.3 |
| 20260510063052 | 55 | 0 | 0.0 | 0.0 | 0.00 | 0.00 | 0.00 | 82 | 1012.2 |
| 20260510062543 | 55 | 0 | 0.0 | 0.0 | 0.00 | 0.00 | 0.00 | 80 | 1012.1 |
| 20260510062044 | 57 | 0 | 0.0 | 0.0 | 0.00 | 0.00 | 0.00 | 75 | 1012.1 |
| 20260510061557 | 58 | 0 | 0.0 | 0.0 | 0.00 | 0.00 | 0.00 | 75 | 1012.1 |
| 20260510061044 | 59 | 0 | 0.0 | 0.0 | 0.00 | 0.00 | 0.00 | 75 | 1012.1 |
| 20260510060543 | 59 | 0 | 0.0 | 0.0 | 0.00 | 0.00 | 0.00 | 75 | 1012.2 |
| 20260510060054 | 59 | 0 | 0.0 | 0.0 | 0.00 | 0.00 | 0.00 | 74 | 1012.2 |
| 20260510055542 | 58 | 0 | 0.0 | 0.0 | 0.00 | 0.00 | 0.00 | 75 | 1012.2 |
| 20260510055042 | 58 | 0 | 0.0 | 0.0 | 0.00 | 0.00 | 0.00 | 76 | 1012.2 |
| 20260510054549 | 58 | 0 | 0.0 | 0.0 | 0.00 | 0.00 | 0.00 | 77 | 1012.2 |
| 20260510054042 | 58 | 0 | 0.0 | 0.0 | 0.00 | 0.00 | 0.00 | 77 | 1012.1 |
| 20260510053543 | 58 | 0 | 0.0 | 0.0 | 0.00 | 0.00 | 0.00 | 77 | 1012.2 |
| 20260510053053 | 58 | 0 | 0.0 | 0.0 | 0.00 | 0.00 | 0.00 | 77 | 1012.2 |
| 20260510052542 | 58 | 0 | 0.0 | 0.0 | 0.00 | 0.00 | 0.00 | 77 | 1012.1 |
| 20260510052042 | 59 | 0 | 0.0 | 0.0 | 0.00 | 0.00 | 0.00 | 76 | 1012.2 |
| 20260510051551 | 59 | 0 | 0.0 | 0.0 | 0.00 | 0.00 | 0.00 | 77 | 1012.2 |
| 20260510051041 | 58 | 0 | 0.0 | 0.0 | 0.00 | 0.00 | 0.00 | 77 | 1012.2 |
| 20260510050541 | 58 | 0 | 0.0 | 0.0 | 0.00 | 0.00 | 0.00 | 79 | 1012.1 |
| 20260510050050 | 58 | 0 | 0.0 | 0.0 | 0.00 | 0.00 | 0.00 | 79 | 1012.0 |
| 20260510045543 | 57 | 0 | 0.0 | 0.0 | 0.00 | 0.00 | 0.00 | 81 | 1012.2 |
| 20260510045040 | 56 | 0 | 0.0 | 0.0 | 0.00 | 0.00 | 0.00 | 82 | 1012.2 |
| 20260510044619 | 57 | 0 | 0.0 | 0.0 | 0.00 | 0.00 | 0.00 | 82 | 1012.2 |
| 20260510044039 | 57 | 0 | 0.0 | 0.0 | 0.00 | 0.00 | 0.00 | 81 | 1012.1 |
| 20260510043539 | 57 | 0 | 0.0 | 0.0 | 0.00 | 0.00 | 0.00 | 82 | 1012.1 |
| 20260510043054 | 56 | 0 | 0.0 | 0.0 | 0.00 | 0.00 | 0.00 | 83 | 1012.1 |
| 20260510042542 | 56 | 0 | 0.0 | 0.0 | 0.00 | 0.00 | 0.00 | 83 | 1012.1 |
| 20260510042046 | 56 | 0 | 0.0 | 0.0 | 0.00 | 0.00 | 0.00 | 84 | 1012.0 |
| 20260510041555 | 56 | 0 | 0.0 | 0.0 | 0.00 | 0.00 | 0.00 | 86 | 1012.0 |
| 20260510041042 | 55 | 0 | 0.0 | 0.0 | 0.00 | 0.00 | 0.00 | 87 | 1012.1 |
| 20260510040542 | 54 | 0 | 0.0 | 0.0 | 0.00 | 0.00 | 0.00 | 87 | 1012.0 |
| 20260510040053 | 55 | 0 | 0.0 | 0.0 | 0.00 | 0.00 | 0.00 | 87 | 1012.0 |
| 20260510035543 | 55 | 0 | 0.0 | 0.0 | 0.00 | 0.00 | 0.00 | 87 | 1012.0 |
| 20260510035042 | 55 | 0 | 0.0 | 0.0 | 0.00 | 0.00 | 0.00 | 87 | 1011.9 |
| 20260510034549 | 55 | 0 | 0.0 | 0.0 | 0.00 | 0.00 | 0.00 | 87 | 1012.0 |
| 20260510034042 | 55 | 0 | 0.0 | 0.0 | 0.00 | 0.00 | 0.00 | 87 | 1012.0 |
| 20260510033538 | 55 | 0 | 0.0 | 0.0 | 0.00 | 0.00 | 0.00 | 86 | 1011.9 |
| 20260510033047 | 56 | 0 | 0.0 | 0.0 | 0.00 | 0.00 | 0.00 | 84 | 1011.9 |
| 20260510032541 | 57 | 0 | 0.0 | 0.0 | 0.00 | 0.00 | 0.00 | 82 | 1011.9 |
| 20260510032042 | 58 | 0 | 0.0 | 0.0 | 0.00 | 0.00 | 0.00 | 82 | 1011.9 |
| 20260510031550 | 58 | 0 | 0.0 | 0.0 | 0.00 | 0.00 | 0.00 | 82 | 1011.9 |
| 20260510031046 | 58 | 0 | 0.0 | 0.0 | 0.00 | 0.00 | 0.00 | 82 | 1012.0 |
| 20260510030541 | 58 | 0 | 0.0 | 0.0 | 0.00 | 0.00 | 0.00 | 82 | 1012.0 |
| 20260510030051 | 58 | 0 | 0.0 | 0.0 | 0.00 | 0.00 | 0.00 | 82 | 1011.9 |
| 20260510025542 | 58 | 0 | 0.0 | 0.0 | 0.00 | 0.00 | 0.00 | 82 | 1011.9 |
| 20260510025041 | 58 | 0 | 0.0 | 0.0 | 0.00 | 0.00 | 0.00 | 82 | 1011.8 |
| 20260510024551 | 59 | 0 | 0.0 | 0.0 | 0.00 | 0.00 | 0.00 | 80 | 1011.9 |
| 20260510024042 | 59 | 0 | 0.0 | 0.0 | 0.00 | 0.00 | 0.00 | 79 | 1011.8 |
| 20260510023542 | 60 | 0 | 0.0 | 0.0 | 0.00 | 0.00 | 0.00 | 77 | 1011.7 |
| 20260510023057 | 61 | 0 | 0.0 | 0.0 | 0.00 | 0.00 | 0.00 | 72 | 1011.7 |
| 20260510022542 | 62 | 0 | 0.0 | 0.0 | 0.00 | 0.00 | 0.00 | 71 | 1011.7 |
| 20260510022042 | 61 | 0 | 0.0 | 0.0 | 0.00 | 0.00 | 0.00 | 73 | 1011.6 |
| 20260510021553 | 61 | 0 | 0.0 | 0.0 | 0.00 | 0.00 | 0.00 | 74 | 1011.6 |
| 20260510021043 | 61 | 0 | 0.0 | 0.0 | 0.00 | 0.00 | 0.00 | 77 | 1011.5 |
| 20260510020543 | 61 | 0 | 0.0 | 0.0 | 0.00 | 0.00 | 0.00 | 77 | 1011.4 |
| 20260510020056 | 61 | 0 | 0.0 | 0.0 | 0.00 | 0.00 | 0.00 | 78 | 1011.3 |
| 20260510015544 | 61 | 0 | 0.0 | 0.0 | 0.00 | 0.00 | 0.00 | 77 | 1011.2 |
| 20260510015041 | 62 | 0 | 0.0 | 0.0 | 0.00 | 0.00 | 0.00 | 76 | 1011.2 |
| 20260510014554 | 62 | 0 | 0.0 | 0.0 | 0.00 | 0.00 | 0.00 | 75 | 1011.1 |
| 20260510014043 | 63 | 0 | 0.0 | 0.0 | 0.00 | 0.00 | 0.00 | 75 | 1011.0 |
| 20260510013545 | 63 | 0 | 0.0 | 0.0 | 0.00 | 0.00 | 0.00 | 74 | 1011.0 |
| 20260510013051 | 63 | 0 | 0.0 | 0.0 | 0.00 | 0.00 | 0.00 | 73 | 1010.9 |
| 20260510012544 | 64 | 0 | 0.0 | 0.0 | 0.00 | 0.00 | 0.00 | 73 | 1010.8 |
| 20260510012043 | 64 | 0 | 0.0 | 0.0 | 0.00 | 0.00 | 0.00 | 71 | 1010.7 |
| 20260510011558 | 64 | 0 | 0.0 | 0.0 | 0.00 | 0.00 | 0.00 | 72 | 1010.7 |
| 20260510011043 | 65 | 0 | 0.0 | 0.0 | 0.00 | 0.00 | 0.00 | 70 | 1010.6 |
| 20260510010542 | 65 | 0 | 0.0 | 0.0 | 0.00 | 0.00 | 0.00 | 70 | 1010.6 |
| 20260510010121 | 66 | 0 | 0.0 | 0.0 | 0.00 | 0.00 | 0.00 | 69 | 1010.5 |
| 20260510005544 | 66 | 0 | 0.0 | 0.0 | 0.00 | 0.00 | 0.00 | 69 | 1010.4 |
| 20260510005043 | 67 | 0 | 0.0 | 0.0 | 0.00 | 0.00 | 0.00 | 68 | 1010.4 |
| 20260510004555 | 68 | 0 | 0.0 | 0.0 | 0.00 | 0.00 | 0.00 | 66 | 1010.4 |
| 20260510004043 | 69 | 0 | 0.0 | 0.0 | 0.00 | 0.00 | 0.00 | 62 | 1010.4 |
| 20260510003544 | 70 | 0 | 0.0 | 0.0 | 0.00 | 0.00 | 0.00 | 59 | 1010.3 |
| 20260510003057 | 70 | 0 | 0.0 | 0.0 | 0.00 | 0.00 | 0.00 | 60 | 1010.2 |
| 20260510002544 | 70 | 0 | 0.0 | 0.0 | 0.00 | 0.00 | 0.00 | 62 | 1010.2 |
| 20260510002043 | 70 | 0 | 0.0 | 0.0 | 0.00 | 0.00 | 0.00 | 62 | 1010.3 |
| 20260510001552 | 71 | 0 | 0.0 | 1.0 | 0.00 | 0.00 | 0.00 | 63 | 1010.2 |
| 20260510001048 | 71 | 0 | 0.0 | 1.0 | 0.00 | 0.00 | 0.00 | 61 | 1010.2 |
| 20260510000545 | 71 | 0 | 0.0 | 3.0 | 0.00 | 0.00 | 0.00 | 61 | 1010.2 |
| 20260510000053 | 72 | 0 | 0.0 | 3.0 | 0.00 | 0.00 | 0.00 | 57 | 1010.2 |
| 20260509235542 | 72 | 211 | 2.0 | 3.0 | 0.00 | 0.00 | 0.00 | 56 | 1010.3 |
| 20260509235042 | 73 | 213 | 1.0 | 3.0 | 0.00 | 0.00 | 0.00 | 57 | 1010.1 |
| 20260509234620 | 73 | 0 | 0.0 | 2.0 | 0.00 | 0.00 | 0.00 | 61 | 1010.1 |
| 20260509234042 | 74 | 0 | 0.0 | 2.0 | 0.00 | 0.00 | 0.00 | 58 | 1010.1 |
| 20260509233546 | 75 | 176 | 1.0 | 2.0 | 0.00 | 0.00 | 0.00 | 54 | 1010.1 |
| 20260509233054 | 75 | 0 | 0.0 | 3.0 | 0.00 | 0.00 | 0.00 | 47 | 1010.1 |
| 20260509232543 | 76 | 0 | 1.0 | 2.0 | 0.00 | 0.00 | 0.00 | 49 | 1010.1 |
| 20260509232043 | 76 | 0 | 0.0 | 2.0 | 0.00 | 0.00 | 0.00 | 49 | 1010.1 |
| 20260509231554 | 76 | 0 | 0.0 | 2.0 | 0.00 | 0.00 | 0.00 | 47 | 1010.1 |
| 20260509231039 | 76 | 0 | 0.0 | 2.0 | 0.00 | 0.00 | 0.00 | 51 | 1010.1 |
| 20260509230539 | 76 | 229 | 0.0 | 2.0 | 0.00 | 0.00 | 0.00 | 44 | 1010.0 |
| 20260509230048 | 76 | 0 | 0.0 | 2.0 | 0.00 | 0.00 | 0.00 | 45 | 1010.1 |
| 20260509225541 | 75 | 0 | 0.0 | 3.0 | 0.00 | 0.00 | 0.00 | 48 | 1010.1 |